Temperature
21 20 20 20 20 20 20 20 19 19 19 19 19 18 18 18 18 18 17 17 17 17 17 17 16 16 16 16 16 15 15 15 15 15 14 14 14 14 14 14 14 14 14
21 20 20 19 19 19 19 19 19 19 18 18 18 18 18 18 18 17 17 17 17 17 16 16 16 16 16 16 16 15 15 15 15 15 14 14 14 14 14 14 13 14 13
20 20 19 19 19 19 18 18 18 18 18 18 18 18 18 18 17 17 17 17 17 16 16 16 16 16 16 16 15 15 15 15 15 14 14 14 13 13 13 13 13 13 13
19 19 18 18 18 18 18 18 18 18 18 18 18 17 17 17 17 17 17 17 16 16 16 16 16 16 16 15 15 14 14 14 14 14 14 14 13 13 13 13 13 13 13
19 18 18 18 17 17 17 17 18 18 17 17 17 17 17 17 17 17 16 16 16 16 16 16 16 15 15 15 15 14 14 14 14 14 13 13 13 12 13 13 12 12 12
18 18 18 17 17 17 17 17 17 17 17 17 17 17 17 16 16 16 16 16 16 15 15 15 15 15 15 15 14 14 14 14 13 13 13 13 12 12 12 12 12 12 12
18 18 17 17 17 16 16 16 16 16 16 16 16 16 16 16 16 16 16 16 15 15 15 15 15 15 15 14 14 13 13 13 13 13 12 12 12 12 12 12 12 12 12
17 17 17 16 16 16 16 16 16 16 16 16 16 16 16 16 16 16 15 15 15 15 15 15 15 15 14 14 13 13 13 13 13 12 12 12 12 12 12 12 12 12 11
16 16 16 16 16 16 16 16 16 16 16 16 16 16 16 16 15 15 15 15 15 15 15 15 14 14 14 13 13 13 13 12 12 12 12 12 12 11 11 11 11 11 11
15 15 15 15 15 15 15 15 15 15 15 15 15 15 15 15 15 15 15 15 14 14 14 14 14 14 13 13 13 12 12 12 12 12 12 12 11 11 11 11 11 11 11
14 14 14 15 15 15 15 15 15 15 15 15 15 15 15 15 15 14 14 14 14 14 14 14 14 13 13 13 12 12 12 12 12 12 12 11 11 11 11 11 11 11 11
14 14 14 14 14 14 14 14 14 14 14 14 15 15 14 14 14 14 14 14 14 14 14 14 13 13 13 12 12 12 12 12 11 11 11 11 11 11 11 11 10 11 11
13 13 13 13 13 14 14 14 14 14 14 14 14 14 14 14 14 14 13 13 13 13 13 13 13 13 12 12 12 12 11 11 11 11 11 11 11 11 10 10 10 10 11
12 12 13 13 13 13 13 13 13 13 13 14 14 14 14 14 13 13 13 13 13 13 13 13 13 12 12 12 12 11 11 11 11 11 11 11 11 10 10 10 10 10 10
11 12 12 12 12 12 12 13 13 13 13 13 13 13 13 13 13 13 13 13 13 13 13 13 12 12 12 11 11 11 11 11 11 11 11 11 11 10 10 10 10 10 10
11 11 12 12 12 12 12 12 12 13 13 13 13 13 13 13 13 13 13 13 13 13 13 12 12 12 11 11 11 11 11 11 11 11 11 11 10 10 10 10 10 10 10
10 11 11 11 11 11 11 12 12 12 12 12 12 13 13 13 13 13 13 13 13 12 12 12 12 11 11 11 11 10 10 10 10 11 10 10 10 10 10 10 10 9 9
10 10 11 11 11 11 11 11 11 12 12 12 12 12 12 12 13 13 13 13 12 12 12 12 11 11 11 10 10 10 10 10 10 10 10 10 10 10 10 10 10 9 9
9 10 10 10 10 10 10 10 11 11 11 11 12 12 12 12 12 12 12 12 12 12 12 11 11 11 10 10 10 10 10 10 10 10 10 10 10 10 10 10 10 9 9
9 9 9 9 10 10 10 10 10 10 11 11 11 11 12 12 12 12 12 12 12 12 11 11 11 11 10 10 10 10 10 10 10 10 10 10 10 10 10 10 9 9 9
8 8 9 9 9 9 9 9 9 10 10 11 11 11 11 11 11 12 12 12 12 12 11 11 11 10 10 10 10 9 9 9 9 9 9 10 10 10 9 9 9 9 9
8 8 8 8 9 9 9 9 9 9 10 10 11 11 11 11 11 11 12 12 12 11 11 11 10 10 10 10 9 9 9 9 9 9 9 9 9 9 9 9 9 9 9
7 7 8 8 8 8 9 9 9 9 9 10 10 11 11 11 11 11 11 12 11 11 11 11 10 10 10 9 10 10 9 9 9 9 9 9 9 9 9 9 9 9 9
7 7 7 8 8 8 8 8 8 8 8 9 10 10 10 10 11 11 11 11 11 11 11 11 11 11 10 10 9 10 10 10 9 9 9 9 9 9 9 9 9 9 9
7 7 7 7 8 8 8 8 8 8 8 9 9 10 10 10 10 10 11 11 11 11 11 11 10 10 10 10 10 10 10 10 10 10 9 9 9 9 9 9 9 9 9
6 7 7 7 7 8 8 8 8 8 8 8 9 9 9 9 10 10 10 11 11 11 11 11 10 10 10 10 10 10 10 11 11 11 10 10 9 9 9 9 9 9 9
Wind_Speed
3 8 16 17 18 18 19 20 20 20 20 19 20 20 21 21 22 22 22 22 21 20 20 19 19 19 19 19 19 19 18 18 17 17 16 15 16 17 17 17 16 16 17
6 11 16 17 18 18 19 19 19 20 20 20 20 20 21 21 22 22 22 22 21 20 20 19 19 19 19 19 19 18 18 18 17 16 15 15 16 17 17 16 16 15 17
6 8 13 16 17 17 18 18 18 19 20 20 20 20 21 21 22 22 22 21 21 20 20 20 19 19 19 19 19 18 18 17 17 16 14 13 14 17 17 17 17 17 17
6 6 8 13 15 16 17 18 18 19 19 20 20 21 21 21 21 21 21 21 20 20 20 20 20 19 19 18 18 18 18 18 17 16 12 11 13 16 17 16 16 16 17
5 4 5 10 13 15 16 17 18 19 19 20 20 21 21 21 22 21 21 21 21 20 20 20 20 19 18 18 18 17 17 17 16 14 12 11 12 16 16 15 15 16 17
3 2 5 7 11 13 14 16 17 18 19 19 20 21 21 22 22 22 22 22 21 21 21 20 20 19 18 18 18 17 17 17 15 13 12 11 12 15 15 15 15 16 16
2 2 4 7 8 11 13 15 16 17 18 19 20 21 21 22 22 22 22 22 22 22 21 20 20 19 18 18 18 18 17 18 15 13 11 11 13 15 15 15 15 16 16
1 3 4 6 7 9 11 13 14 15 17 18 19 20 21 22 22 22 22 22 22 22 21 21 20 19 19 18 17 17 17 17 15 13 11 11 13 15 15 16 16 16 15
1 2 3 5 6 7 9 11 13 14 15 17 18 19 20 22 23 23 23 23 23 22 22 21 20 19 19 18 17 16 16 16 15 12 11 10 13 14 15 15 15 14 14
2 2 3 3 4 5 6 9 11 13 15 15 16 17 18 20 22 22 23 24 24 23 22 21 20 19 18 18 17 16 17 16 14 12 10 11 14 15 15 14 14 13 13
5 3 2 3 3 3 5 7 8 11 13 14 14 15 15 15 16 18 20 23 24 24 23 22 21 19 18 17 17 16 15 13 13 11 10 13 15 15 14 14 13 12 12
7 6 3 3 4 4 4 4 6 8 10 10 10 11 11 12 13 15 20 23 24 23 23 22 21 19 15 12 14 14 12 13 12 10 11 15 15 14 14 13 13 12 12
8 7 5 4 4 4 4 4 4 4 6 8 10 11 10 10 10 11 12 16 18 19 17 18 16 13 11 10 10 11 12 12 11 10 12 14 14 14 14 13 12 11 11
8 8 6 4 4 5 5 4 4 4 4 6 9 11 9 6 7 8 8 10 12 12 11 11 10 10 10 11 11 11 11 10 10 11 12 14 14 14 14 13 12 11 10
9 9 7 6 5 6 5 5 5 5 6 7 8 11 11 8 8 9 8 10 11 12 11 10 10 9 8 9 10 11 9 10 11 11 11 13 13 13 13 13 12 10 10
10 9 7 7 6 6 6 6 6 6 7 7 8 11 13 10 9 9 9 10 11 12 12 11 11 10 8 8 8 9 10 11 11 12 11 12 13 13 13 12 11 10 9
10 9 7 7 6 6 7 7 6 7 7 7 8 12 13 12 11 10 9 10 11 13 13 10 10 9 8 8 8 8 9 9 10 11 12 11 11 12 12 11 10 10 9
9 8 8 7 6 6 7 7 6 7 7 7 8 11 14 14 13 11 10 10 13 13 11 10 10 9 9 8 8 7 7 8 9 11 11 11 11 10 11 11 10 10 9
7 7 8 7 7 7 7 7 8 8 8 7 7 10 12 14 14 12 11 10 13 12 10 11 9 9 10 9 8 7 6 7 7 9 8 10 11 11 10 10 10 10 9
6 6 6 6 6 6 6 6 6 8 8 7 8 10 13 13 14 12 11 12 13 12 12 11 11 10 9 9 8 6 5 5 5 7 7 8 10 11 11 10 9 9 9
5 5 5 5 6 4 4 5 6 8 7 7 8 11 13 14 14 12 11 12 12 12 14 14 10 12 9 9 7 5 3 2 4 5 5 6 7 10 11 11 10 9 8
6 7 7 6 6 6 6 5 6 8 7 8 8 11 14 14 14 12 13 13 13 12 15 15 13 8 8 10 9 8 4 1 2 3 4 6 7 7 8 10 11 10 9
6 7 7 7 7 7 7 5 5 5 5 7 8 9 12 14 14 14 14 13 14 14 15 16 15 11 11 9 10 7 6 6 4 2 4 5 6 5 6 8 10 11 11
7 8 7 7 7 7 6 6 8 7 8 8 7 8 11 13 14 14 14 15 15 13 15 17 14 12 14 13 9 4 4 6 6 3 2 4 6 7 7 6 8 9 11
8 8 7 6 6 6 6 7 9 8 7 6 6 9 10 11 12 14 14 15 15 14 15 16 14 15 13 13 10 6 4 4 4 5 5 4 3 4 6 6 6 7 10
8 7 7 6 7 6 7 7 9 9 7 7 8 9 9 9 10 14 15 15 15 14 16 16 15 17 13 12 10 8 7 7 6 4 5 6 5 3 3 4 5 6 9
Wind_Direction
208 183 181 173 169 165 161 158 157 155 152 150 147 144 141 139 138 138 138 137 137 135 133 129 127 124 123 121 119 116 113 111 108 105 105 107 106 105 100 93 89 85 87
168 172 178 173 171 169 166 163 160 159 157 154 152 149 148 145 143 143 142 141 140 138 135 132 130 128 125 123 122 119 116 113 110 108 107 107 108 106 103 100 96 93 90
136 164 174 174 174 172 169 166 164 163 161 159 156 154 153 151 149 147 146 144 142 141 137 135 133 131 128 126 125 123 120 117 114 111 105 102 108 107 104 101 97 94 93
131 148 172 179 177 175 171 169 167 166 166 164 161 159 158 156 154 152 149 147 145 143 140 138 135 133 131 130 128 126 123 121 118 113 104 103 109 109 105 102 98 97 95
132 141 164 178 182 179 176 173 172 170 170 169 167 165 164 162 159 156 153 151 148 145 143 140 138 136 135 133 131 128 127 125 120 114 107 105 108 109 107 105 102 99 97
127 133 176 174 184 184 181 180 178 176 174 173 173 171 169 167 164 161 157 152 149 147 145 143 142 140 139 136 133 130 130 128 120 115 111 108 109 112 111 110 107 104 99
143 151 180 187 186 190 186 183 184 183 180 178 177 177 175 172 168 163 159 155 152 150 148 147 146 144 142 139 136 133 130 129 123 118 115 114 117 117 115 113 110 107 102
169 186 185 192 197 196 193 189 188 189 187 185 182 180 180 176 171 166 162 159 156 154 152 151 150 148 146 143 139 135 131 129 128 124 121 122 125 122 119 115 110 106 104
332 202 202 202 198 203 201 197 195 194 192 190 188 183 181 179 174 170 166 162 159 157 156 155 153 153 150 146 141 137 132 130 130 128 127 130 131 128 123 118 113 110 108
322 308 253 226 207 206 203 205 203 201 198 194 191 185 182 180 177 173 170 165 162 159 158 158 157 156 153 149 143 138 133 131 130 130 131 137 137 133 127 122 118 115 112
318 303 284 247 228 213 216 211 206 203 200 195 190 184 180 178 174 173 171 167 165 162 162 161 160 158 154 149 144 137 131 133 134 134 139 141 139 136 131 127 123 120 117
299 292 277 267 241 230 235 218 210 208 196 194 189 180 179 176 173 173 170 168 166 164 164 163 161 157 150 144 143 136 133 136 136 140 147 147 144 140 135 133 129 126 122
273 276 266 263 253 235 226 221 212 201 194 190 185 179 174 171 168 167 166 165 165 163 162 162 157 152 149 145 140 139 140 140 142 145 151 150 149 147 142 138 135 130 125
270 271 259 249 255 245 228 219 213 202 201 197 185 179 171 174 175 173 173 166 165 163 160 157 156 155 154 152 147 144 143 143 146 147 153 153 153 150 147 143 140 136 131
259 260 257 245 248 247 235 223 218 207 206 200 188 181 178 179 181 178 179 172 168 165 165 163 161 162 157 154 152 150 147 146 148 148 154 155 154 153 151 149 146 142 139
261 258 254 248 242 248 245 230 219 209 205 201 194 188 182 177 181 180 182 179 174 171 170 168 167 165 163 158 157 153 151 150 150 149 153 157 158 159 157 156 154 151 148
266 255 251 253 238 241 250 234 224 209 204 206 198 190 185 179 180 181 182 183 176 172 170 167 166 159 159 157 158 156 152 153 153 153 153 155 159 162 165 165 165 165 161
275 260 251 260 249 242 250 246 229 216 209 209 200 192 187 181 178 180 180 186 177 170 167 168 167 162 160 159 160 161 156 155 155 158 157 159 160 163 169 172 174 174 174
280 270 256 248 240 240 245 251 236 222 216 209 202 195 189 184 180 183 182 182 177 172 171 172 170 164 163 161 159 155 156 160 161 161 162 166 167 167 170 177 179 180 182
284 279 264 254 239 237 244 251 241 227 219 209 205 201 191 186 183 185 184 179 178 175 173 171 167 164 163 160 152 143 148 158 162 168 172 172 174 176 177 178 181 186 189
295 290 276 259 246 235 236 243 232 227 221 213 210 203 193 186 183 185 187 180 180 181 177 169 165 162 161 152 133 119 78 114 167 177 175 174 181 184 184 184 185 187 191
298 295 286 265 254 243 233 240 229 229 223 215 208 203 195 189 185 188 188 185 180 180 178 173 163 162 166 161 151 143 133 141 230 195 186 186 188 183 187 190 188 189 192
293 290 288 275 263 251 238 239 243 241 224 218 211 201 196 192 190 188 191 185 183 181 182 177 173 164 169 171 164 155 157 184 184 216 206 196 188 186 192 189 192 194 194
286 283 279 271 269 258 240 234 225 231 235 224 210 207 198 193 192 189 191 187 183 183 182 182 178 170 169 173 173 167 157 148 153 170 216 207 196 196 196 195 193 197 195
294 285 277 279 276 267 245 235 226 228 235 225 212 207 202 197 195 192 192 188 183 183 182 183 179 173 176 177 172 162 146 135 131 149 178 193 203 212 201 197 192 192 194
310 310 299 294 285 265 246 232 225 220 221 221 215 209 203 198 197 195 193 189 185 183 182 182 181 177 178 177 173 168 163 160 165 154 164 176 192 213 196 193 192 188 191
Height
1481 1481 1482 1483 1484 1486 1487 1489 1491 1493 1495 1497 1499 1501 1503 1504 1506 1508 1510 1511 1512 1514 1515 1516 1517 1518 1519 1519 1520 1521 1521 1522 1522 1523 1523 1523 1523 1524 1524 1524 1524 1524 1525
1480 1481 1482 1483 1484 1485 1487 1488 1490 1492 1495 1497 1499 1500 1502 1504 1506 1507 1509 1511 1512 1514 1515 1516 1517 1518 1519 1519 1520 1521 1521 1522 1522 1523 1523 1524 1524 1524 1524 1525 1525 1525 1525
1480 1480 1481 1482 1484 1485 1487 1488 1490 1492 1494 1496 1498 1500 1502 1503 1505 1507 1508 1510 1512 1513 1514 1515 1517 1517 1518 1519 1520 1521 1521 1522 1523 1523 1523 1524 1525 1525 1525 1526 1526 1526 1526
1480 1480 1481 1482 1484 1485 1486 1488 1489 1491 1493 1495 1497 1499 1501 1503 1504 1506 1508 1509 1511 1512 1514 1515 1516 1517 1518 1519 1520 1520 1521 1522 1523 1523 1524 1524 1525 1526 1526 1526 1527 1527 1527
1479 1480 1480 1482 1483 1485 1486 1487 1489 1490 1492 1494 1496 1498 1500 1502 1503 1505 1507 1508 1510 1512 1513 1514 1515 1516 1517 1518 1519 1520 1521 1522 1523 1524 1524 1525 1526 1527 1527 1527 1527 1527 1528
1478 1479 1480 1481 1482 1484 1485 1486 1488 1489 1491 1492 1494 1496 1498 1500 1502 1504 1505 1507 1509 1510 1512 1513 1515 1516 1517 1518 1519 1520 1521 1522 1523 1524 1525 1526 1526 1527 1528 1528 1528 1528 1529
1477 1478 1478 1480 1481 1482 1483 1484 1486 1488 1489 1491 1492 1494 1496 1498 1500 1502 1504 1506 1507 1509 1511 1512 1514 1515 1516 1517 1519 1520 1521 1522 1523 1524 1525 1526 1527 1528 1528 1529 1529 1529 1529
1474 1476 1477 1478 1479 1480 1481 1482 1484 1485 1487 1488 1490 1492 1494 1496 1498 1500 1502 1504 1506 1507 1509 1511 1513 1514 1516 1517 1518 1519 1521 1522 1524 1525 1526 1527 1528 1528 1529 1529 1529 1530 1530
1473 1473 1474 1475 1476 1477 1478 1479 1481 1483 1484 1486 1488 1490 1492 1494 1496 1498 1500 1502 1504 1506 1508 1510 1511 1513 1515 1516 1518 1519 1520 1522 1523 1525 1526 1527 1528 1529 1529 1529 1530 1530 1531
1470 1470 1471 1472 1473 1474 1475 1476 1478 1479 1481 1483 1485 1487 1489 1491 1493 1495 1497 1499 1501 1504 1506 1508 1510 1512 1514 1516 1517 1518 1520 1522 1523 1525 1526 1527 1528 1529 1529 1530 1530 1531 1531
1467 1467 1467 1468 1470 1470 1471 1472 1474 1475 1477 1480 1481 1483 1485 1487 1489 1492 1494 1497 1499 1501 1504 1506 1508 1511 1513 1514 1516 1518 1520 1521 1523 1525 1526 1527 1528 1529 1530 1530 1531 1531 1532
1461 1463 1463 1463 1465 1466 1467 1468 1470 1471 1473 1475 1477 1479 1481 1483 1486 1488 1491 1494 1496 1499 1501 1504 1506 1509 1511 1513 1515 1517 1519 1521 1522 1524 1526 1527 1528 1529 1530 1530 1531 1531 1532
1457 1458 1459 1459 1460 1461 1462 1463 1465 1466 1468 1470 1472 1475 1477 1479 1481 1484 1487 1490 1492 1495 1498 1501 1504 1506 1509 1511 1513 1515 1517 1520 1522 1523 1525 1527 1528 1529 1529 1530 1531 1531 1532
1453 1453 1454 1454 1455 1456 1457 1458 1460 1461 1462 1465 1467 1470 1472 1474 1476 1479 1482 1485 1488 1491 1494 1497 1500 1504 1507 1510 1512 1514 1516 1518 1521 1522 1524 1526 1527 1528 1529 1530 1530 1531 1531
1448 1448 1448 1449 1450 1451 1452 1453 1454 1455 1457 1459 1462 1464 1466 1469 1471 1474 1477 1480 1483 1487 1490 1494 1497 1501 1504 1507 1510 1512 1515 1517 1519 1521 1523 1525 1526 1528 1529 1529 1530 1531 1531
1443 1442 1443 1444 1444 1445 1446 1447 1448 1450 1451 1453 1456 1459 1461 1464 1466 1469 1472 1475 1479 1483 1487 1490 1493 1497 1501 1505 1508 1510 1513 1515 1518 1520 1522 1523 1525 1527 1528 1529 1529 1530 1530
1438 1437 1437 1437 1438 1439 1439 1441 1442 1444 1445 1447 1450 1453 1455 1458 1461 1464 1467 1470 1474 1478 1483 1487 1491 1494 1498 1502 1505 1508 1511 1513 1516 1518 1520 1522 1524 1525 1527 1528 1529 1529 1530
1432 1431 1430 1431 1432 1433 1433 1434 1436 1437 1438 1440 1443 1446 1449 1452 1455 1458 1462 1465 1469 1473 1477 1482 1486 1490 1494 1498 1502 1506 1509 1512 1514 1517 1519 1521 1522 1524 1525 1527 1527 1528 1529
1426 1425 1425 1424 1426 1427 1428 1428 1429 1431 1431 1434 1436 1439 1442 1445 1449 1452 1456 1460 1464 1467 1472 1477 1482 1485 1490 1495 1499 1503 1506 1509 1512 1514 1517 1519 1521 1522 1524 1525 1526 1527 1527
1421 1420 1419 1419 1420 1421 1421 1422 1423 1424 1425 1427 1429 1432 1435 1439 1442 1446 1450 1454 1458 1462 1466 1472 1477 1482 1487 1492 1496 1501 1505 1508 1510 1512 1515 1517 1519 1521 1522 1523 1524 1525 1526
1417 1415 1414 1414 1414 1415 1415 1415 1415 1417 1417 1419 1422 1425 1428 1432 1436 1440 1444 1448 1452 1456 1460 1466 1472 1478 1483 1488 1493 1498 1503 1506 1509 1511 1513 1514 1516 1518 1520 1521 1522 1523 1524
1412 1411 1410 1408 1407 1408 1409 1409 1410 1411 1412 1413 1415 1418 1422 1425 1430 1434 1438 1442 1446 1451 1456 1460 1466 1472 1477 1482 1486 1492 1498 1504 1505 1508 1510 1512 1514 1515 1517 1519 1520 1521 1521
1408 1406 1404 1403 1402 1403 1403 1404 1405 1406 1405 1407 1409 1411 1414 1419 1423 1428 1432 1436 1440 1445 1449 1453 1459 1464 1470 1476 1481 1484 1490 1494 1500 1504 1506 1508 1510 1512 1514 1516 1517 1518 1519
1404 1401 1399 1398 1397 1397 1396 1397 1397 1397 1397 1398 1401 1405 1408 1412 1417 1421 1425 1430 1434 1439 1444 1448 1454 1459 1464 1469 1475 1479 1483 1485 1491 1497 1501 1504 1506 1508 1510 1512 1514 1515 1516
1399 1397 1394 1392 1391 1390 1390 1390 1391 1391 1392 1394 1396 1399 1401 1405 1410 1414 1419 1423 1427 1433 1438 1444 1449 1454 1459 1463 1467 1473 1478 1481 1485 1488 1493 1498 1502 1504 1506 1508 1510 1512 1513
1395 1392 1389 1387 1386 1385 1385 1385 1385 1385 1387 1388 1390 1393 1395 1399 1403 1408 1413 1417 1421 1426 1432 1437 1443 1448 1453 1459 1463 1468 1472 1475 1480 1484 1487 1491 1496 1499 1502 1504 1506 1508 1509